COSMOS 2251 DEB, 36061

Orbit data source: Space-Track

COSMOS 2251 DEB, 36061 is space debris in LEO originally from a launch on Wed, 16 Jun 1993 UTC launched from the Plesetsk Missile And Space Complex (PKMTR). The debris from Iridium 33, an American commercial communications satellite, has been tracked extensively since its accidental collision with the defunct Russian satellite Cosmos 2251 in 2009. This event, occurring at high speed in low Earth orbit (LEO), generated thousands of pieces of space debris, significantly increasing the risk of further collisions. The Iridium 33 debris cloud has impacted space traffic management and orbital debris mitigation strategies, making it a subject of ongoing study in space situational awareness.

Loading next visibility...
Identifier
36061, 1993-036AXY
Orbit
LEO
Country
Flag of CISCIS
Related business
Manufacturer
Unknown
Mission
Spacecraft
Bus & Motor
Unknown
Mass
Unknown
Launch date (UTC)
1993-06-16 (33 years ago)
Launch vehicle
Unknown
Launch site
Plesetsk Missile And Space Complex (PKMTR)
Object type
Payload
Rocket body
Debris
Shape & HBR
Unknown shape, 0.1 m
Radar Cross Section
Small (<0.1 m²)

Expand to show TLE details & history
Last TLE update: 19 hours ago

TLE from 19 hours ago
0 COSMOS 2251 DEB
1 36061U 93036AXY 26033.30944618  .00000727  00000-0  26871-3 0  9999
2 36061  74.0234 265.3618 0038636 339.8254  20.1369 14.33823204658436
Epoch: 2026-02-02T07:25Z
TLE epoch observation values (Epoch: 2026-02-02T07:25:36.149Z)
Latitude
0.00004°
Longitude
21.45461°
Altitude
755.634 km
Speed
7.49 km/s
True Right ascension
17h 41m 26s
True Declination
0° 00' 00"
Sunlit
Object was in daylight at epoch
Visualization orbit readout
Latitude
Unknown
Longitude
Unknown
Altitude
Unknown
Speed
Unknown
Apparent Right ascension
Unknown
Apparent Declination
Unknown
Sunlit
N/A
Visualization observer readout
Local Sidereal Time
04:14:10
Azimuth
Unknown
Elevation
Unknown
Doppler factor
Unknown
Orbital elements
Apogee altitude
804.25 km
Perigee altitude
748.964 km
Semi-major axis
7,154.744 km
Eccentricity
0.00386
Inclination
74.0234°
RAAN
265.3618°
Arg. of periapsis
339.8254°
True anomaly
20.29001°
Mean anomaly
20.1369°
Eccentric anomaly
20.21339°
Mean motion
3.58634 °/min
Orbital period
100.38 mins
BSTAR
0.00026871
Loading maneuver chart data...
Computing Atmospheric mass density...

Documentation

Showing up to 5 results
|